Wind_Speed
14 13 13 13 13 13 13 13 13 14 13 11 9 8 8 8 8 8 8 8 8 7 6 5 4 4 4 5 5 5 5 4 3 4 5 6 6 6 6 6 5 5 4 4 5 5 5 5 5 4 4 4 4 5 6 6 7 7 7 7 8 9 9 11 12 12 13 15 16 16 17 18 19 21 21 21 22 23 23 22 22 22 21 22 22 21 20 19
13 12 11 11 12 11 11 11 12 12 12 11 9 9 9 8 8 8 7 7 6 6 6 5 3 2 3 4 5 5 4 3 2 3 4 5 5 5 5 4 4 3 3 4 4 5 5 5 5 5 4 4 5 6 6 7 8 8 8 7 8 10 11 11 13 13 14 15 16 17 18 19 20 21 22 23 23 24 24 22 23 24 22 23 23 22 21 20
11 10 10 10 10 10 9 10 10 10 11 10 9 8 8 8 8 7 7 6 5 5 5 4 2 1 2 3 3 4 4 3 2 3 4 5 4 4 3 3 3 2 2 3 4 4 5 5 5 5 5 5 5 6 7 8 8 8 8 9 10 11 12 12 13 14 15 16 16 17 18 19 21 22 23 24 25 25 23 22 25 24 22 24 24 23 22 21
11 10 10 9 9 9 9 10 10 10 9 9 9 8 7 7 7 7 7 7 6 5 4 3 2 1 0 1 3 3 3 3 3 4 4 4 3 3 2 2 2 1 2 2 3 4 5 5 5 5 6 6 6 7 8 8 8 8 9 10 11 12 12 13 13 14 15 16 17 17 19 20 21 23 24 25 26 25 22 23 26 25 24 25 25 24 23 21
10 10 10 9 9 10 9 9 9 9 9 8 8 7 6 5 5 6 6 7 6 5 5 4 2 1 1 1 1 2 3 4 5 4 4 4 3 2 2 1 0 0 1 2 3 4 5 5 6 6 6 6 7 7 8 9 9 9 10 10 11 12 13 13 14 14 15 16 17 18 19 21 22 24 23 25 26 23 21 25 27 26 26 26 25 24 22 21
9 9 9 9 9 9 8 8 7 8 8 7 7 7 5 4 5 5 5 6 5 4 4 3 2 1 1 1 2 3 4 5 5 4 4 3 2 2 2 1 1 1 1 2 3 4 5 6 6 6 6 6 7 8 8 9 9 10 10 10 11 12 12 13 14 15 16 17 17 19 20 22 23 24 24 25 23 20 22 27 27 27 26 25 24 22 21 20
8 8 8 8 8 7 7 7 6 6 6 6 7 7 4 3 5 5 5 5 4 4 3 1 1 0 1 1 2 3 5 5 6 5 4 3 3 3 2 2 1 2 2 3 4 5 6 6 6 6 6 6 7 8 9 9 10 10 10 10 11 12 12 13 15 16 17 17 18 20 21 23 24 25 25 24 20 20 25 27 26 26 24 24 23 21 20 20
7 7 7 8 7 5 6 6 5 5 4 4 5 5 3 3 6 7 5 3 3 4 1 1 1 2 3 3 5 5 5 5 6 5 4 4 4 3 2 1 1 2 3 4 4 5 5 6 6 6 6 7 8 8 9 10 10 10 10 11 12 13 14 14 16 16 17 18 19 20 22 24 25 26 24 20 19 22 24 24 23 23 22 22 20 19 20 21
6 6 6 7 5 4 5 5 4 3 2 2 3 4 3 4 7 8 6 3 2 3 1 2 3 5 5 6 6 6 5 5 5 4 4 4 4 4 2 1 1 2 3 4 4 5 6 6 7 7 8 8 8 9 10 11 10 10 11 13 13 14 15 15 16 17 18 19 20 21 23 25 27 27 22 18 20 23 22 22 21 21 21 20 19 19 20 21
6 6 5 5 5 4 4 4 4 2 1 2 2 3 4 6 8 8 6 4 1 2 0 1 3 5 6 5 6 6 5 5 4 4 4 4 3 3 2 2 2 2 3 4 5 5 6 7 8 9 9 9 9 10 11 10 11 12 13 14 14 15 15 16 17 17 19 20 22 22 23 27 27 25 21 19 21 23 22 22 20 21 21 20 19 19 20 20
7 6 5 4 4 4 4 4 4 2 1 3 2 3 5 7 8 7 6 5 2 0 1 1 2 4 5 6 6 6 5 5 4 4 4 3 3 3 2 2 3 4 4 4 5 6 7 8 9 10 10 9 10 11 11 10 12 14 14 15 15 15 16 17 17 18 20 21 22 22 24 26 23 21 21 21 22 22 22 22 20 21 21 20 19 19 20 19
9 7 6 5 3 4 3 3 3 1 2 3 4 4 6 7 6 6 5 4 2 2 2 2 3 5 6 6 6 5 5 5 4 4 4 3 3 3 2 3 4 4 5 5 6 7 8 9 10 11 10 10 11 11 10 11 13 14 15 16 16 16 16 17 18 19 20 21 22 23 24 24 21 21 22 22 22 23 23 23 22 21 21 21 20 20 19 18
11 9 7 5 4 5 4 2 1 0 2 4 6 6 7 7 6 6 5 4 3 2 2 3 4 5 6 7 7 5 5 5 4 4 3 3 2 2 2 3 4 5 5 6 7 7 8 9 10 10 10 10 11 10 10 12 14 14 15 15 15 17 17 17 18 19 21 21 21 23 25 25 24 25 24 23 23 23 23 23 22 21 21 21 21 19 17 16
11 10 8 6 5 5 6 4 3 1 2 4 6 7 7 7 7 7 6 4 3 2 3 4 5 6 7 7 6 5 6 5 5 4 3 2 2 2 2 3 4 5 6 6 7 7 8 8 9 10 10 10 10 11 11 12 14 14 14 14 15 17 18 17 18 19 20 20 22 23 25 27 26 26 26 25 24 23 22 22 22 21 21 21 20 18 15 15
9 10 9 7 5 5 6 5 3 1 1 4 6 8 8 7 7 7 6 6 5 3 4 6 7 8 8 7 6 5 6 5 4 4 3 2 2 2 3 3 4 5 6 6 7 7 7 8 8 10 10 10 10 11 12 13 13 14 13 14 17 18 18 18 18 19 19 20 23 23 25 28 26 25 27 25 22 22 22 21 21 21 21 20 18 16 14 13
8 10 10 9 6 5 6 6 4 3 2 5 7 8 8 8 7 7 7 7 6 4 5 7 8 9 8 7 6 5 5 5 4 3 3 3 2 3 3 3 4 5 6 6 6 7 7 8 8 10 10 10 10 11 13 13 13 15 14 15 18 19 20 20 19 20 19 21 23 22 25 29 27 27 26 23 22 23 23 22 21 20 19 17 15 13 11 12
7 9 10 10 8 6 7 7 4 5 6 7 7 8 9 8 7 7 8 8 6 5 6 7 8 9 8 6 6 6 5 5 4 3 3 3 3 3 4 4 4 5 7 7 6 7 8 8 9 9 9 10 11 12 12 10 11 15 16 17 18 20 21 20 20 21 21 22 24 25 28 30 28 27 24 22 23 23 22 20 18 17 16 13 11 10 10 10
5 8 10 10 9 8 8 6 5 6 9 9 8 9 11 9 8 7 8 8 6 6 6 7 8 8 6 6 6 6 5 5 4 3 3 3 3 4 4 4 5 6 7 7 7 7 8 9 9 9 10 11 11 12 11 10 12 14 16 18 19 21 22 20 20 23 23 23 25 27 30 31 29 26 25 24 22 20 19 17 13 11 10 9 8 8 8 8
3 6 8 9 9 10 9 8 7 6 8 8 8 11 12 10 8 7 8 7 6 7 7 7 8 8 6 6 6 6 5 5 4 4 3 3 3 4 4 5 5 6 7 7 8 8 8 10 9 9 11 11 12 13 12 13 14 15 17 18 19 22 21 20 22 24 25 25 27 29 31 32 29 27 24 20 16 18 20 16 9 6 5 6 6 6 7 7
3 4 6 7 9 10 10 10 8 5 5 6 9 13 13 10 8 7 7 7 7 8 9 9 9 8 8 7 6 6 5 5 5 5 5 4 4 5 5 5 5 7 7 8 9 8 9 10 9 9 11 12 13 14 14 15 15 16 17 18 20 22 21 22 24 24 27 29 31 30 30 30 27 25 20 15 16 19 18 13 6 4 4 5 5 6 7 8
5 4 3 5 7 9 9 9 6 4 5 7 10 12 12 10 9 7 7 7 7 8 10 10 10 10 9 8 7 6 6 6 6 6 6 6 6 6 6 6 6 7 8 9 9 10 10 11 9 10 12 13 13 14 15 16 16 17 18 19 21 22 23 24 23 25 28 31 33 32 30 27 22 20 18 16 20 18 14 11 6 4 6 6 7 8 10 12
6 5 3 3 5 7 8 7 6 4 6 8 10 11 11 10 8 8 7 7 7 8 9 10 11 11 10 9 7 6 6 7 7 8 8 8 8 7 7 8 7 8 10 9 10 11 11 11 10 11 13 13 14 15 16 17 17 18 19 21 22 23 24 24 24 27 28 32 34 32 30 24 17 18 19 20 21 16 13 12 7 6 9 9 10 11 13 15
6 5 3 2 3 5 7 6 6 6 7 8 9 9 9 8 8 8 8 7 7 8 9 10 11 11 10 10 9 8 8 8 8 8 9 9 9 9 10 9 9 10 10 10 12 12 12 12 12 12 14 14 15 16 16 17 18 18 20 21 21 22 24 25 27 28 28 31 31 30 31 22 14 19 22 22 20 15 14 13 9 8 10 12 14 15 17 19
5 5 3 2 2 2 4 5 6 6 7 6 6 6 6 7 7 7 7 7 7 7 8 9 10 10 10 10 10 9 9 9 9 10 10 11 11 11 11 11 11 11 11 12 13 13 14 14 13 13 15 15 16 17 17 18 18 19 20 21 22 23 24 26 29 31 31 28 24 28 26 13 12 22 23 21 19 14 12 10 8 7 11 16 18 20 23 25
5 5 3 2 2 2 1 2 2 4 6 6 5 4 5 5 6 6 7 7 6 7 7 8 9 9 10 10 11 11 11 11 12 12 12 13 13 13 13 13 13 13 13 14 14 15 15 14 14 15 16 16 17 18 18 18 19 19 20 21 23 24 26 27 29 33 30 20 20 25 15 4 14 24 22 21 18 13 11 9 7 8 12 17 19 22 26 28
5 4 2 2 3 3 1 0 1 4 5 4 4 3 3 4 5 5 6 7 6 5 6 6 7 8 8 9 10 10 11 11 11 11 12 13 13 14 14 14 15 15 15 16 16 16 15 15 16 17 17 17 18 18 18 18 19 20 21 22 23 25 27 28 30 31 22 16 21 21 7 7 20 26 22 19 15 12 14 14 12 12 14 17 19 22 25 27
5 2 3 3 2 3 2 1 2 3 3 2 2 2 2 3 3 4 6 5 4 4 5 5 6 7 8 9 10 11 10 10 11 13 13 13 13 14 14 16 17 17 17 17 17 17 17 18 18 18 19 19 19 19 18 18 18 20 22 23 25 26 26 29 31 29 24 21 22 16 7 7 15 22 21 17 14 14 15 16 16 15 16 17 18 19 19 20
6 3 0 2 1 1 2 1 2 3 2 2 2 2 2 2 3 4 4 2 2 3 4 3 5 6 7 9 11 12 12 13 14 14 15 16 16 17 18 18 18 19 19 19 20 21 20 20 19 20 20 19 20 19 18 18 19 20 23 25 26 26 27 30 30 27 23 17 10 10 7 4 9 15 16 17 18 16 15 15 14 13 12 12 12 11 11 13
5 3 2 3 2 2 2 2 3 2 1 2 2 2 2 3 4 5 3 2 2 3 3 3 4 4 6 8 10 11 12 13 14 15 17 18 18 19 20 20 20 21 21 21 22 22 21 20 19 19 20 20 20 19 18 18 18 21 24 26 25 26 28 28 26 22 17 9 5 6 2 1 10 12 9 17 20 16 14 12 10 7 4 6 8 9 11 16
4 4 3 3 2 2 3 2 1 1 2 2 3 4 5 5 4 3 2 2 2 3 2 3 5 8 9 10 12 12 13 14 15 16 16 17 18 19 20 21 21 22 22 22 23 21 20 19 19 19 20 20 19 18 18 16 18 22 24 25 25 26 26 24 20 14 7 3 4 6 5 2 8 9 8 18 17 13 11 9 8 7 6 10 13 14 18 22
5 4 3 3 2 2 2 2 2 3 4 4 4 5 5 5 4 3 2 2 3 2 0 3 8 12 13 14 15 15 15 15 15 16 16 18 18 19 20 20 20 21 21 21 20 19 18 19 20 21 19 18 17 16 15 15 19 21 21 23 22 20 18 14 10 5 2 2 4 7 4 1 6 10 12 16 11 9 12 11 11 12 13 17 19 22 24 24
7 4 2 1 1 2 2 2 4 5 6 6 6 6 5 4 4 4 3 3 3 1 3 8 13 15 16 17 17 16 16 15 15 15 16 17 17 18 18 18 18 18 17 17 19 20 21 20 18 16 14 14 14 13 14 18 20 19 19 21 16 11 9 5 4 2 3 3 5 6 4 6 14 16 11 12 6 9 15 14 14 17 19 22 23 24 23 22
7 5 3 2 0 1 2 4 5 6 7 7 7 6 5 3 2 3 3 4 4 6 9 13 15 16 17 17 16 15 14 14 13 12 13 15 16 17 16 16 17 16 15 18 21 18 16 13 12 12 12 11 11 12 16 18 19 20 20 17 10 6 6 6 4 3 5 3 4 8 7 9 14 11 8 11 7 9 16 16 20 23 24 25 23 22 23 24
7 6 5 3 2 2 4 6 6 7 8 8 7 6 5 4 4 4 5 6 8 10 12 15 17 17 16 15 14 12 12 12 12 12 14 15 15 16 16 17 16 15 15 17 15 11 9 10 9 9 9 9 11 16 19 20 21 20 16 12 8 5 5 6 5 4 7 6 7 10 7 7 7 6 14 17 10 10 19 21 26 27 25 25 24 25 27 29
6 7 7 6 4 4 6 7 8 8 9 9 8 7 5 5 5 6 7 8 9 12 14 16 17 17 15 13 11 11 12 12 14 15 15 15 16 17 18 15 13 12 13 11 11 10 10 9 8 8 10 14 17 19 19 18 17 14 12 9 9 9 8 10 12 13 12 9 7 10 11 14 15 16 21 16 11 13 24 27 30 28 26 27 27 29 32 35
5 7 8 8 8 8 8 9 10 10 10 9 8 7 6 5 5 7 8 9 11 13 15 16 16 15 14 12 11 13 14 15 17 17 16 16 17 16 13 11 10 12 13 13 12 10 8 8 10 12 16 18 17 16 16 16 14 13 14 13 13 14 11 12 14 13 10 7 6 9 15 20 19 16 13 10 12 19 27 31 33 28 26 28 30 34 36 40
6 7 7 8 9 10 10 10 11 11 10 9 7 7 6 6 6 7 8 9 12 13 15 16 15 13 13 12 13 16 17 17 17 17 17 17 15 12 9 10 13 14 14 13 12 11 13 15 17 17 17 16 15 16 18 18 17 16 16 16 15 13 8 7 6 6 6 6 5 10 18 20 15 9 8 11 17 24 29 33 34 30 27 29 32 36 39 43
6 7 7 7 8 9 10 11 12 12 10 8 7 6 6 5 6 7 9 11 12 14 15 15 13 13 14 15 18 18 18 17 16 16 17 15 11 10 11 14 14 13 11 11 12 14 16 16 15 14 13 15 16 18 20 19 17 16 16 17 14 9 6 4 4 5 5 5 5 8 16 21 16 10 10 15 20 25 31 36 36 32 29 33 38 41 45 49
6 6 6 7 7 9 11 13 12 11 9 7 7 6 5 6 7 9 10 12 13 14 15 14 14 15 16 18 19 18 17 16 16 15 15 12 10 12 15 13 11 10 12 14 15 16 16 13 11 13 16 18 19 18 18 18 18 17 17 16 13 11 9 6 7 6 4 6 7 5 8 12 11 9 12 18 21 26 34 38 37 34 32 37 44 48 52 56
5 5 6 6 8 10 12 12 10 9 8 6 6 6 7 8 9 10 11 12 14 14 15 16 16 16 17 17 17 16 16 15 14 14 13 13 13 13 12 10 10 13 15 16 15 16 17 12 12 18 21 20 19 19 19 21 20 19 17 15 13 11 9 9 12 13 10 8 5 4 6 7 10 15 18 16 20 30 37 38 38 35 35 41 46 52 58 61
5 5 6 8 10 11 11 10 9 8 7 6 6 7 8 9 9 10 11 12 14 14 15 15 15 15 16 15 14 15 15 14 14 14 13 12 12 11 10 12 15 16 16 16 16 15 14 13 17 23 23 20 21 21 21 21 18 14 13 13 11 11 10 8 9 11 13 12 8 7 8 13 22 24 15 13 25 36 37 38 38 36 38 44 49 56 62 65
4 6 8 9 10 10 10 9 8 7 7 7 7 7 8 9 9 10 11 12 13 14 14 14 14 13 13 13 13 13 14 15 14 11 10 11 11 12 13 15 16 17 17 16 15 14 14 16 20 22 22 21 21 18 15 12 9 9 12 13 13 14 12 9 8 8 11 14 16 12 9 17 27 20 12 21 34 37 36 37 37 39 44 48 54 61 65 67
6 7 8 9 9 9 8 7 7 7 7 7 7 8 9 9 10 11 11 12 13 14 13 13 13 13 12 12 12 12 13 14 11 9 10 11 12 13 15 16 16 17 17 16 15 16 15 14 17 22 23 20 16 12 7 5 8 13 17 18 18 18 16 14 16 18 15 16 17 12 7 11 13 13 21 34 37 36 37 37 39 45 48 51 59 66 68 67
6 7 7 8 8 8 8 7 7 7 7 7 8 8 9 10 10 11 12 13 13 13 12 12 12 12 12 11 11 11 12 11 9 10 12 12 13 14 15 16 16 17 17 17 17 16 13 13 16 18 16 11 6 4 4 9 17 21 22 23 22 21 20 18 18 19 15 13 13 10 10 11 11 21 36 40 38 39 39 39 44 48 51 58 67 70 67 61
5 6 7 7 7 8 7 7 7 7 7 7 8 8 9 10 11 12 12 12 12 12 11 11 11 11 11 10 10 11 11 11 11 12 12 13 14 14 14 16 17 17 18 18 17 16 14 14 15 12 8 6 5 7 11 17 23 23 22 22 22 20 18 17 15 12 10 11 11 14 22 28 30 35 38 36 37 41 42 44 48 50 56 66 70 67 62 55
5 6 7 7 8 7 6 6 7 7 8 8 8 9 9 11 11 11 12 12 11 11 11 11 11 11 10 10 11 11 11 11 12 12 13 14 15 15 16 17 17 18 18 16 16 15 14 15 16 15 14 14 16 19 21 22 24 23 20 17 17 17 16 15 14 12 12 16 18 20 25 37 43 42 35 33 37 42 45 50 51 55 64 70 67 60 53 48
6 7 7 7 7 6 6 8 8 8 8 8 9 9 10 11 11 11 12 11 11 11 11 10 10 10 10 11 11 11 11 12 13 14 14 14 16 17 17 18 18 18 16 15 14 14 16 18 18 17 19 19 20 21 22 22 21 18 16 15 14 12 11 11 11 12 13 16 19 20 24 32 41 40 34 34 39 44 49 51 53 62 70 68 60 54 49 47
6 7 7 8 7 7 8 8 8 8 9 9 10 10 11 11 11 12 11 11 11 11 10 9 10 10 10 11 12 12 13 13 13 14 15 16 17 17 18 19 18 17 15 16 17 16 17 19 18 18 19 18 19 20 18 16 15 15 16 14 10 8 7 9 10 13 15 16 21 29 31 34 38 37 33 35 41 47 50 51 58 68 69 61 54 50 50 50
7 8 8 8 8 8 8 8 8 9 9 10 10 10 10 11 11 10 10 10 10 9 9 9 10 10 11 11 12 13 13 14 14 15 16 17 17 18 19 18 16 16 17 17 17 16 15 17 17 19 20 19 18 18 15 14 17 19 15 10 6 5 6 9 12 15 20 24 29 36 40 40 37 34 38 43 44 46 49 56 65 67 59 52 50 50 51 52
8 8 8 8 8 8 8 8 8 9 10 10 10 10 10 10 9 9 9 9 9 8 9 9 9 10 11 11 12 13 13 14 15 16 17 17 17 18 18 17 16 17 17 15 14 13 13 16 16 18 22 22 18 16 16 19 21 17 11 9 6 6 9 13 15 19 26 31 34 37 41 42 39 41 47 47 44 48 57 64 65 58 51 49 49 50 53 55
8 8 8 7 7 7 8 8 9 9 9 9 9 9 9 9 9 9 9 9 8 8 9 9 9 10 11 12 12 13 14 14 15 16 17 17 18 17 16 16 16 15 13 12 12 12 13 15 15 17 22 23 19 17 20 23 20 13 11 11 9 10 13 16 17 21 28 34 37 40 40 40 45 51 51 45 46 57 66 64 56 51 49 48 47 51 57 58
7 7 7 7 7 7 8 8 8 8 8 8 8 8 9 9 9 9 9 8 8 8 8 9 10 10 11 12 12 13 14 14 15 16 17 17 17 15 14 14 13 11 10 10 11 12 12 14 16 16 18 21 20 19 21 22 14 6 8 10 11 13 16 19 20 22 26 33 39 41 40 43 48 49 47 48 56 65 63 55 50 51 50 47 48 54 59 59
Wind_Direction
122 118 112 107 104 101 93 86 80 77 75 74 78 81 84 88 91 94 95 90 85 83 82 80 84 93 100 104 105 103 100 95 103 120 123 128 126 119 112 104 95 81 65 54 43 33 24 11 2 356 347 342 341 340 336 326 320 319 319 319 313 307 306 304 304 305 307 307 308 308 307 307 305 303 303 300 299 298 296 298 297 295 295 294 294 294 295 299
123 119 111 107 104 100 91 83 78 73 71 70 74 82 88 89 90 88 85 80 76 78 79 77 79 97 110 112 111 107 100 94 106 133 135 136 131 122 114 106 96 77 59 44 29 22 13 360 352 347 339 333 332 329 326 319 316 316 315 315 310 308 307 305 304 306 307 309 309 308 308 307 305 304 302 301 300 297 298 299 295 293 294 293 293 292 292 296
122 116 110 107 105 100 90 81 73 67 66 66 69 77 85 88 90 86 78 74 68 68 67 67 59 56 113 118 106 104 106 114 143 162 154 145 136 127 123 121 113 87 59 32 16 10 360 350 345 341 335 330 320 317 319 317 315 310 309 312 313 312 309 306 306 306 308 309 309 308 307 306 304 303 301 301 299 298 301 296 290 292 294 293 294 293 291 294
122 117 112 108 105 100 92 81 71 65 62 65 65 63 71 81 86 82 73 64 56 56 53 42 26 357 27 121 115 118 128 151 164 172 165 152 149 153 155 147 127 87 42 18 2 354 347 344 343 339 333 323 312 312 316 316 314 309 307 309 312 313 309 307 307 306 308 308 307 308 306 305 303 300 300 298 297 302 302 292 290 293 292 293 295 293 289 291
126 122 117 112 109 104 94 83 75 68 63 63 58 48 53 65 69 69 62 53 43 44 45 31 17 324 263 180 162 157 167 178 171 176 176 165 177 192 197 187 142 16 360 358 348 342 343 342 339 337 330 318 313 313 313 313 313 312 310 308 311 313 309 308 307 305 306 306 306 306 305 304 301 301 300 296 300 307 299 289 290 292 291 293 295 292 288 290
131 131 125 119 115 107 95 91 86 77 67 55 42 34 32 36 37 37 40 40 28 32 46 34 23 354 239 219 225 191 197 207 190 190 198 192 204 215 226 234 260 299 329 343 338 339 341 338 335 335 330 320 316 313 312 314 315 315 312 309 312 312 310 308 306 306 306 306 306 306 306 305 302 302 300 300 307 303 287 286 289 291 293 294 294 291 287 289
136 140 138 130 121 106 95 99 95 85 70 48 31 23 11 1 3 360 15 29 24 29 46 47 45 118 196 206 227 221 229 221 199 204 215 224 240 234 231 232 262 300 333 341 336 338 335 330 329 327 326 322 317 313 313 316 317 316 314 312 314 314 313 310 309 309 308 307 307 307 308 306 303 301 302 307 307 289 282 286 289 292 294 293 292 290 287 291
143 142 149 144 130 109 105 105 95 86 70 44 22 13 352 324 341 343 348 5 28 37 49 189 203 233 246 247 246 242 226 198 196 209 220 239 253 245 237 233 273 318 330 333 333 332 326 321 324 322 325 324 319 318 317 320 319 319 319 318 319 319 318 315 313 312 311 310 309 310 309 305 302 302 308 312 300 289 290 291 289 291 292 293 292 288 288 293
155 141 149 151 141 123 119 121 114 101 60 25 7 359 329 301 325 331 325 322 17 47 59 210 227 250 266 257 238 225 206 196 205 217 225 238 245 246 246 251 293 329 325 326 322 323 323 323 325 324 327 325 324 325 323 323 323 324 325 323 323 322 320 318 315 314 312 312 310 310 308 303 303 307 314 314 301 298 296 291 288 290 294 294 290 289 292 295
179 157 150 148 146 140 127 127 129 127 42 17 9 344 319 305 314 317 306 299 331 52 16 217 228 251 259 240 218 215 216 221 226 230 234 230 237 251 259 294 327 335 324 318 316 324 327 326 329 329 328 325 325 327 324 323 324 326 326 324 323 323 321 317 316 315 313 312 310 311 308 304 307 314 318 315 307 303 296 290 287 291 297 296 292 293 295 297
205 191 179 162 149 145 133 123 121 112 21 6 358 332 332 322 309 302 291 286 282 268 277 239 224 242 245 231 223 226 229 236 239 238 239 232 242 261 290 331 336 330 324 321 325 332 331 329 331 330 329 324 325 326 324 324 324 325 324 323 323 323 321 316 315 313 311 312 311 312 310 308 317 322 320 318 310 303 296 290 288 291 296 296 296 297 298 299
222 219 208 194 179 172 153 127 118 93 2 347 336 332 344 337 310 294 286 273 258 250 255 247 230 232 239 236 232 233 236 243 245 239 243 246 248 270 314 336 331 325 330 334 337 336 331 331 330 329 327 321 323 325 324 325 325 325 323 323 323 323 320 315 314 310 310 312 312 316 317 319 333 331 323 320 310 303 297 292 290 290 294 297 298 299 298 298
226 229 224 214 213 215 209 193 180 268 343 342 340 339 343 338 314 296 289 272 256 251 246 240 229 231 242 242 236 239 245 247 247 240 248 260 261 286 315 324 328 333 339 343 344 338 330 328 327 329 327 321 323 324 323 324 325 325 325 323 322 321 319 316 313 310 311 313 315 321 321 326 338 334 328 323 312 305 299 294 291 289 292 297 299 299 297 296
222 226 228 228 227 226 229 236 242 255 347 351 346 340 337 331 313 298 291 273 254 243 238 232 229 238 247 244 239 246 253 252 250 243 255 273 278 295 304 318 333 340 344 346 346 340 332 327 326 329 327 322 323 323 320 322 325 328 327 323 321 321 319 318 314 310 312 314 317 321 318 325 336 335 330 324 312 304 301 297 292 291 293 294 296 295 295 295
214 218 221 225 230 228 220 219 220 211 348 345 339 335 332 322 307 300 291 269 248 237 238 237 241 247 249 247 246 254 256 250 250 251 263 282 299 308 302 316 336 343 346 348 345 342 336 330 327 328 326 323 322 321 319 321 326 330 327 320 321 321 319 321 317 311 312 314 318 318 315 323 335 336 331 321 309 302 304 304 297 295 292 290 290 291 294 295
208 211 214 218 220 215 199 194 203 217 276 314 324 333 331 315 301 297 286 265 248 238 242 249 249 245 246 247 247 257 254 248 252 254 261 282 313 321 308 313 332 343 345 346 344 341 337 334 329 328 326 321 320 320 320 323 328 331 326 318 321 322 321 325 320 313 314 314 317 316 315 323 333 336 331 317 305 304 309 309 301 294 288 285 286 290 297 297
207 211 214 216 213 205 190 188 210 243 276 296 308 323 324 311 296 288 277 261 251 239 238 248 244 235 238 245 250 257 252 248 255 254 266 284 302 315 320 325 329 333 339 344 344 339 337 336 330 326 326 323 321 322 323 325 327 327 324 320 323 324 324 326 320 316 318 317 319 318 319 325 331 338 333 315 307 310 314 313 302 290 282 283 288 295 298 299
211 217 217 214 215 215 205 204 231 260 282 287 289 308 314 304 292 283 269 259 250 234 231 239 235 232 242 253 253 251 248 251 257 262 275 285 295 303 314 326 324 323 333 341 341 340 338 336 331 325 326 325 323 323 319 312 316 321 320 320 324 326 328 329 321 319 321 321 323 321 323 327 333 339 331 316 315 321 324 322 312 294 283 287 294 298 300 308
216 223 220 216 215 220 223 228 240 267 283 277 279 299 304 297 289 278 264 259 249 231 225 230 233 237 251 261 257 251 252 259 265 270 276 284 300 304 305 318 324 321 327 335 336 336 336 334 330 325 328 327 324 322 314 308 311 317 318 319 322 325 330 329 323 324 324 323 325 324 325 330 335 337 330 323 329 332 330 327 321 308 298 300 303 306 312 325
219 222 225 224 220 222 227 229 237 268 280 276 288 296 297 290 283 274 264 259 248 230 221 227 240 244 251 262 260 255 261 268 269 274 281 286 297 307 310 315 319 319 321 328 331 331 333 333 327 324 327 327 324 322 315 309 306 310 316 319 322 325 328 329 326 327 327 324 325 325 328 333 334 335 338 341 336 333 335 330 322 329 325 321 325 327 333 338
217 212 226 236 231 225 227 224 227 256 272 282 291 292 291 286 282 279 269 259 250 236 226 232 246 251 254 259 258 259 269 275 274 276 282 286 294 300 307 312 312 318 319 321 327 327 329 330 323 323 326 325 323 320 314 308 302 306 313 317 323 325 326 328 327 329 329 324 323 324 329 336 337 337 345 344 335 336 339 326 308 332 347 349 351 350 349 346
222 214 229 258 247 228 225 221 219 239 265 276 281 285 285 284 287 286 276 266 257 248 240 241 248 253 254 253 257 263 269 277 279 282 284 286 290 292 299 307 307 312 315 316 322 322 323 324 318 319 324 323 320 318 315 309 304 304 310 316 321 324 326 327 327 330 329 324 322 323 328 339 344 342 346 344 338 336 331 321 303 323 351 2 2 358 354 350
220 208 222 265 260 233 230 224 219 235 255 269 276 279 281 282 284 285 281 275 266 257 250 249 253 258 256 255 260 265 270 277 281 285 287 286 288 291 295 300 301 306 309 311 316 317 316 316 314 317 320 320 318 316 315 312 307 304 308 314 316 322 326 325 324 327 328 323 321 321 326 338 351 343 344 346 343 335 324 320 305 317 350 360 356 353 351 350
207 202 217 250 265 249 239 225 219 238 258 280 290 280 277 278 276 281 284 279 272 263 257 254 257 261 258 258 262 267 272 277 282 287 288 287 289 291 293 296 300 304 303 307 311 311 310 310 309 313 316 317 317 316 315 312 308 306 308 310 312 318 322 322 321 324 326 323 322 324 325 337 350 343 346 352 348 341 333 325 307 316 347 354 351 349 348 347
192 193 198 217 264 288 245 193 216 270 287 298 302 282 269 270 273 284 288 286 277 264 261 258 261 263 260 262 267 273 278 280 285 287 286 287 288 289 292 295 300 303 303 305 307 306 308 308 307 311 312 312 315 315 313 309 306 307 310 311 311 313 317 319 321 324 325 322 321 328 328 313 335 342 355 360 354 354 1 356 330 321 337 347 347 346 349 349
179 192 240 245 266 273 239 83 323 308 303 286 281 268 254 265 279 292 298 296 278 263 269 261 259 261 263 270 275 282 287 287 289 291 290 292 290 290 291 294 299 302 302 303 303 303 305 306 306 308 307 306 312 313 309 306 304 305 310 312 310 310 314 316 319 321 318 309 314 322 315 291 324 342 1 8 4 7 12 10 360 343 337 340 339 340 346 347
169 194 285 256 265 273 268 335 297 282 284 251 250 236 234 264 283 306 313 303 274 270 280 269 263 265 269 280 285 291 295 293 295 296 295 294 294 294 293 296 299 299 301 302 300 301 303 304 303 304 303 302 307 309 305 305 302 303 309 312 308 309 311 313 317 315 307 307 311 309 298 283 311 338 0 15 18 12 5 3 2 353 342 337 332 334 339 337
184 200 198 159 176 248 253 290 254 257 253 220 233 221 231 273 295 323 325 300 295 307 307 296 283 280 287 293 294 297 296 293 295 295 295 294 292 293 294 297 298 296 299 297 294 299 302 301 298 300 300 299 304 305 302 303 301 303 310 311 309 308 309 310 312 308 304 310 302 288 302 278 292 329 1 12 10 9 4 360 353 346 342 338 330 326 320 311
198 207 141 131 146 164 165 182 229 259 285 275 272 255 276 298 313 331 315 251 315 336 342 353 343 333 333 325 317 313 305 297 294 292 296 294 290 291 292 295 296 295 296 294 294 298 299 298 297 297 297 298 301 300 299 301 301 306 310 309 309 307 308 309 307 304 302 301 254 250 260 299 306 321 7 8 3 9 10 7 358 348 339 327 317 301 292 297
183 187 150 136 135 131 126 123 151 357 6 338 316 299 296 299 314 328 265 242 329 340 342 6 1 353 346 337 331 325 316 307 298 294 295 294 293 294 293 295 295 294 295 295 296 297 297 296 295 295 297 299 299 297 298 299 303 309 309 310 312 310 310 307 302 301 295 269 209 206 179 108 316 313 3 4 5 15 10 358 342 317 287 297 300 298 301 306
178 176 150 128 104 97 93 70 35 15 11 1 345 324 307 299 295 277 245 291 336 353 16 345 342 340 335 331 327 323 319 312 303 297 294 294 296 296 296 298 297 298 300 299 298 298 298 296 296 297 297 297 297 297 298 301 309 311 310 315 317 314 313 301 290 283 258 283 178 189 210 216 273 289 342 2 11 17 359 342 324 304 293 299 302 306 310 310
181 172 156 133 80 63 50 31 15 6 2 358 350 335 324 307 272 256 274 320 337 328 322 324 326 328 327 325 323 321 319 314 308 302 298 299 299 300 300 299 299 303 301 299 301 301 299 298 298 298 297 299 299 298 302 308 313 311 311 317 317 313 314 291 269 239 262 283 180 200 253 271 273 281 322 353 1 2 352 340 327 313 306 309 309 312 313 310
190 181 180 193 198 14 11 4 359 356 352 348 342 337 331 308 260 264 293 307 304 307 314 317 319 322 323 323 324 323 321 321 320 316 310 307 305 304 303 301 302 301 294 299 305 303 302 304 302 299 300 302 297 300 308 310 309 308 308 309 305 312 317 298 299 284 278 266 226 261 278 282 283 273 314 330 309 332 341 332 326 320 315 317 316 316 316 314
206 206 212 223 240 330 351 350 347 343 340 336 333 331 318 290 285 297 301 299 299 305 310 313 316 319 322 324 327 329 328 328 327 324 319 313 310 308 306 306 306 304 302 305 307 301 296 300 303 303 301 301 299 302 306 305 305 304 303 300 288 287 288 290 313 305 304 318 286 278 266 265 276 271 308 309 276 307 330 324 321 320 316 318 319 320 322 322
235 234 238 246 258 304 327 332 334 331 329 326 322 321 310 298 307 311 309 306 304 307 310 313 316 319 323 328 331 333 333 328 323 321 319 315 313 310 308 309 308 312 315 310 306 302 291 288 300 305 302 302 301 300 302 305 306 303 304 301 281 281 276 269 281 284 293 313 288 262 256 268 284 295 301 288 248 297 318 314 316 318 316 319 321 323 327 327
264 258 254 254 261 282 300 313 321 322 320 317 316 319 315 306 307 308 307 304 304 309 312 316 319 319 323 328 329 328 326 323 321 320 320 318 315 311 310 311 310 314 315 307 304 302 287 284 298 304 304 303 300 300 302 303 301 297 299 297 288 295 288 266 277 281 279 290 269 254 270 281 293 304 291 247 250 291 305 309 314 317 315 317 321 325 328 328
277 273 268 263 266 274 285 300 311 313 313 313 316 319 314 304 301 302 303 303 307 313 315 319 320 318 320 322 321 323 322 321 321 319 320 319 316 313 314 313 311 312 312 309 304 296 291 293 299 305 306 304 304 304 303 303 302 298 294 297 303 307 292 260 277 291 274 270 255 260 274 281 292 295 262 257 281 298 307 312 313 313 311 313 319 323 326 326
283 280 279 276 274 276 284 298 306 308 310 314 320 318 307 302 305 307 308 308 311 313 314 319 320 316 317 317 316 319 318 318 319 318 319 318 312 312 315 313 311 311 313 313 307 301 302 301 303 308 307 306 308 306 306 307 307 302 298 303 308 298 276 249 263 298 297 278 269 262 270 281 284 267 269 294 304 312 318 317 315 313 315 320 324 326 328 328
285 285 285 283 281 283 292 300 304 306 310 316 320 317 306 306 311 312 313 312 313 314 314 318 319 314 314 315 315 316 316 316 317 317 317 314 310 312 315 314 311 313 315 313 309 306 305 301 296 304 307 307 308 307 307 306 307 307 305 307 306 287 273 262 257 268 278 281 288 270 270 290 285 272 298 309 310 319 324 320 316 314 318 325 328 330 331 331
280 285 289 288 289 294 298 303 304 307 313 315 312 309 307 310 315 316 315 314 315 316 316 317 318 314 313 314 313 313 314 315 317 317 312 309 312 315 316 314 311 311 311 311 311 308 305 293 283 299 307 307 307 308 303 301 303 304 302 305 304 289 281 279 268 260 258 275 297 284 281 286 282 297 310 309 313 322 321 315 312 312 317 324 328 331 331 330
273 285 293 295 297 301 302 304 306 308 311 312 310 311 313 316 320 318 317 316 316 317 317 318 318 315 312 313 313 312 313 315 318 318 311 310 316 315 311 311 311 312 313 313 315 311 305 293 285 294 303 305 307 307 303 302 302 300 303 307 302 296 292 287 275 258 250 255 266 279 289 285 289 300 309 309 318 320 314 310 311 312 318 324 329 331 331 329
281 295 300 301 303 304 304 307 309 310 312 314 314 317 320 322 323 321 320 320 319 320 321 320 318 316 313 313 314 314 314 317 321 319 310 311 316 312 309 311 312 313 315 316 316 313 307 296 289 292 301 307 309 308 304 301 297 302 310 310 308 307 295 276 275 277 260 257 267 273 273 282 290 298 310 316 319 315 310 310 312 315 321 327 330 330 328 325
298 303 304 306 306 306 308 310 311 312 315 318 320 323 325 325 325 324 325 325 323 323 323 320 318 316 315 316 318 319 319 321 321 317 311 312 315 313 311 313 315 315 317 317 315 314 310 299 294 299 307 311 311 311 306 291 302 311 311 309 309 308 301 286 278 281 276 265 269 273 260 271 284 297 313 319 319 312 310 314 316 320 325 329 330 327 325 324
306 310 310 309 309 311 312 311 313 316 318 321 324 327 327 326 326 326 327 327 324 323 322 320 318 318 319 320 322 323 323 320 313 312 313 314 315 316 315 316 317 316 316 315 313 312 307 298 299 306 313 317 316 320 315 307 311 311 308 307 309 308 306 297 284 280 274 261 259 261 262 268 285 306 316 322 319 312 313 318 321 325 328 329 328 325 324 325
318 318 313 311 313 314 314 315 319 322 323 323 326 328 327 326 327 327 326 326 324 323 322 321 321 322 322 322 322 322 321 315 310 313 317 317 317 319 319 318 317 316 315 313 311 309 302 300 300 298 295 295 301 308 307 306 307 306 305 307 309 307 300 293 286 273 263 268 254 248 270 288 302 313 321 322 314 312 317 321 324 328 329 328 326 324 325 326
322 318 313 313 315 315 316 321 323 323 324 324 327 328 326 327 328 326 326 326 324 323 324 323 324 324 322 322 322 322 322 317 315 317 320 321 322 322 321 319 318 317 315 312 312 310 306 307 306 294 284 287 297 303 302 302 302 302 306 308 302 294 284 281 277 263 276 290 274 266 288 303 311 321 324 316 311 314 321 324 326 327 327 326 325 324 325 325
320 315 311 315 318 316 317 320 321 324 326 327 329 329 328 329 330 328 328 328 326 325 327 326 325 325 324 324 325 325 324 323 321 322 324 324 324 323 322 321 319 317 315 314 316 315 310 310 310 304 300 303 306 306 304 303 300 302 308 305 291 279 270 270 274 286 308 300 283 295 308 304 311 322 320 312 314 318 321 324 325 324 324 324 324 324 324 326
317 312 310 315 316 312 314 319 323 326 328 329 331 330 331 331 331 330 329 329 328 328 330 329 328 329 329 327 328 328 327 328 328 326 326 325 324 323 321 321 319 317 319 319 318 317 312 309 312 311 310 313 315 313 309 305 305 311 309 295 275 261 265 278 292 312 322 304 300 317 318 309 314 321 314 311 317 320 321 321 320 320 322 323 323 324 326 329
313 311 310 312 313 314 317 323 327 327 328 331 331 331 331 331 331 330 329 329 330 331 332 333 331 332 332 329 330 331 330 331 329 326 326 325 324 323 321 320 319 318 320 320 318 318 312 308 315 315 311 316 321 317 315 314 316 315 301 275 264 277 290 302 307 318 325 320 320 324 321 318 321 317 311 312 316 318 318 315 316 320 324 324 325 327 330 331
310 311 314 315 316 319 323 326 328 327 328 330 330 331 331 331 332 332 331 332 334 335 334 334 333 332 333 332 333 332 331 330 327 325 325 324 322 322 320 318 318 316 317 318 318 318 311 308 318 318 313 319 326 321 317 318 318 309 275 245 260 289 306 318 317 322 328 328 327 325 321 319 318 313 311 311 314 316 315 314 319 325 327 327 327 330 331 330
311 313 318 319 320 323 325 327 327 327 329 330 331 333 333 334 335 334 334 335 336 338 337 336 336 336 335 335 334 332 330 328 325 323 323 322 321 322 317 314 315 314 315 318 318 321 317 314 322 322 315 318 325 323 318 316 313 295 249 238 261 293 315 326 323 325 331 330 327 324 320 316 313 312 311 309 311 315 316 320 326 329 330 330 329 329 330 330
315 318 321 321 323 325 325 326 327 329 333 336 336 337 336 338 338 336 337 338 337 340 340 339 339 338 336 335 332 331 329 326 324 323 322 322 321 319 315 312 311 312 317 322 321 323 325 321 324 323 313 313 321 324 320 316 309 269 230 248 278 299 312 318 316 318 324 326 324 319 314 311 308 307 308 308 310 314 320 327 331 331 332 331 327 328 329 329
Height
3177 3177 3177 3177 3178 3178 3178 3179 3178 3179 3179 3179 3179 3179 3179 3179 3179 3179 3179 3180 3180 3180 3180 3181 3181 3181 3181 3182 3181 3182 3182 3182 3182 3182 3181 3181 3181 3181 3180 3180 3180 3180 3180 3179 3179 3179 3179 3179 3178 3178 3178 3178 3177 3177 3177 3177 3176 3176 3176 3175 3175 3174 3174 3173 3172 3172 3172 3171 3170 3170 3169 3168 3168 3167 3166 3166 3165 3164 3163 3163 3162 3161 3160 3159 3158 3158 3157 3156
3177 3178 3178 3178 3179 3179 3179 3180 3180 3180 3180 3180 3180 3180 3180 3180 3180 3180 3180 3181 3181 3181 3181 3181 3182 3182 3182 3182 3182 3182 3182 3182 3182 3182 3182 3181 3181 3181 3181 3181 3180 3180 3180 3179 3179 3179 3179 3178 3178 3178 3178 3177 3177 3177 3176 3176 3176 3175 3175 3175 3174 3173 3173 3172 3172 3171 3171 3170 3169 3168 3168 3167 3166 3166 3165 3164 3163 3162 3161 3161 3159 3159 3158 3157 3156 3156 3155 3154
3178 3179 3179 3179 3180 3180 3180 3180 3180 3180 3181 3181 3181 3181 3181 3181 3181 3181 3181 3181 3181 3181 3181 3181 3182 3183 3183 3183 3182 3182 3182 3182 3182 3182 3182 3182 3181 3181 3181 3181 3181 3180 3180 3179 3179 3179 3178 3178 3178 3178 3177 3177 3176 3176 3176 3176 3175 3175 3174 3174 3173 3173 3172 3171 3171 3170 3170 3169 3168 3167 3167 3166 3165 3164 3163 3162 3161 3160 3160 3159 3157 3157 3156 3155 3154 3154 3153 3153
3179 3180 3180 3180 3181 3181 3181 3181 3181 3181 3181 3181 3182 3182 3182 3182 3181 3181 3181 3181 3182 3181 3181 3182 3182 3183 3183 3183 3183 3183 3183 3183 3183 3183 3182 3182 3182 3181 3181 3181 3180 3180 3179 3179 3179 3179 3178 3178 3178 3178 3177 3177 3176 3176 3175 3175 3175 3174 3174 3173 3172 3172 3171 3170 3170 3169 3168 3168 3167 3166 3165 3164 3163 3162 3161 3160 3158 3158 3158 3156 3154 3154 3154 3153 3152 3152 3151 3150
3180 3180 3181 3181 3181 3182 3182 3182 3182 3182 3182 3182 3182 3182 3182 3182 3182 3182 3182 3182 3182 3182 3182 3182 3183 3183 3184 3184 3183 3183 3183 3183 3183 3183 3183 3182 3182 3182 3181 3181 3180 3180 3179 3179 3179 3178 3178 3178 3178 3177 3177 3176 3176 3176 3175 3175 3174 3174 3173 3172 3172 3171 3170 3169 3169 3168 3167 3167 3166 3165 3164 3162 3161 3160 3159 3157 3156 3156 3155 3153 3152 3152 3151 3151 3150 3150 3149 3148
3180 3181 3181 3181 3182 3182 3182 3182 3182 3182 3182 3182 3182 3183 3183 3183 3183 3183 3182 3182 3182 3182 3182 3183 3183 3184 3184 3184 3184 3184 3184 3183 3183 3183 3183 3182 3182 3182 3181 3180 3180 3180 3179 3179 3178 3178 3178 3177 3177 3177 3177 3176 3176 3175 3175 3174 3174 3173 3172 3172 3171 3170 3169 3169 3168 3167 3166 3166 3165 3164 3162 3161 3159 3158 3157 3156 3155 3154 3152 3150 3149 3149 3149 3148 3148 3147 3147 3146
3181 3181 3181 3182 3182 3182 3183 3183 3182 3182 3183 3183 3183 3183 3183 3183 3183 3183 3183 3182 3182 3181 3182 3183 3184 3184 3184 3184 3184 3184 3184 3183 3183 3183 3183 3182 3182 3182 3181 3181 3180 3179 3179 3178 3178 3178 3177 3177 3177 3177 3176 3176 3175 3175 3174 3173 3173 3172 3172 3171 3170 3169 3169 3168 3167 3166 3165 3164 3163 3162 3161 3159 3157 3156 3155 3154 3153 3150 3148 3148 3147 3147 3147 3146 3145 3145 3144 3144
3181 3181 3182 3182 3182 3183 3183 3183 3183 3183 3183 3183 3183 3183 3183 3183 3183 3183 3183 3183 3182 3181 3182 3183 3183 3184 3184 3184 3184 3184 3184 3183 3183 3183 3183 3182 3182 3182 3181 3181 3180 3179 3179 3178 3178 3178 3178 3177 3177 3176 3176 3175 3175 3174 3173 3173 3172 3171 3171 3170 3169 3169 3168 3167 3166 3165 3164 3163 3162 3161 3159 3157 3155 3154 3153 3152 3150 3148 3146 3145 3145 3144 3144 3143 3143 3142 3142 3141
3181 3181 3182 3182 3182 3183 3183 3183 3183 3183 3183 3183 3183 3183 3183 3183 3183 3183 3182 3182 3182 3181 3182 3182 3183 3184 3184 3184 3185 3184 3184 3183 3183 3183 3183 3182 3182 3181 3181 3180 3180 3179 3179 3178 3178 3178 3178 3177 3177 3176 3175 3175 3174 3173 3172 3172 3171 3171 3170 3169 3168 3168 3167 3166 3165 3164 3163 3162 3160 3160 3158 3155 3153 3152 3151 3150 3147 3146 3144 3143 3143 3142 3142 3141 3140 3140 3139 3139
3181 3181 3181 3182 3182 3183 3183 3183 3183 3183 3183 3183 3183 3183 3183 3183 3183 3183 3182 3182 3181 3181 3182 3182 3183 3184 3184 3185 3185 3184 3184 3184 3183 3183 3182 3182 3182 3181 3181 3180 3179 3179 3179 3178 3178 3178 3177 3177 3176 3175 3175 3174 3173 3173 3172 3171 3170 3170 3169 3168 3167 3167 3166 3165 3164 3163 3161 3160 3159 3158 3156 3152 3151 3150 3149 3147 3145 3144 3142 3141 3140 3140 3139 3138 3137 3137 3136 3136
3180 3181 3181 3182 3182 3182 3183 3183 3183 3183 3183 3183 3183 3183 3183 3183 3183 3183 3182 3182 3181 3181 3181 3182 3183 3184 3185 3185 3185 3184 3184 3183 3183 3183 3182 3182 3182 3181 3181 3180 3179 3179 3179 3178 3178 3177 3177 3177 3176 3175 3174 3174 3173 3172 3171 3171 3170 3169 3168 3167 3166 3166 3165 3163 3163 3162 3160 3159 3157 3156 3154 3151 3150 3149 3146 3145 3143 3141 3140 3138 3138 3137 3136 3135 3135 3134 3134 3133
3180 3180 3181 3181 3182 3182 3183 3183 3183 3183 3183 3183 3183 3183 3183 3183 3183 3182 3182 3182 3181 3181 3182 3182 3183 3184 3185 3185 3185 3184 3184 3183 3183 3182 3182 3182 3182 3181 3180 3180 3180 3179 3179 3178 3177 3177 3177 3176 3176 3175 3174 3174 3173 3172 3171 3170 3169 3168 3167 3166 3165 3164 3164 3162 3162 3160 3159 3157 3155 3154 3151 3148 3148 3147 3144 3143 3141 3139 3138 3136 3135 3134 3134 3133 3132 3132 3131 3131
3179 3180 3181 3181 3182 3182 3183 3184 3184 3183 3183 3183 3183 3183 3183 3183 3183 3182 3182 3182 3182 3182 3182 3182 3183 3184 3185 3185 3184 3184 3183 3183 3182 3182 3182 3182 3181 3181 3180 3180 3180 3179 3179 3178 3177 3177 3176 3176 3175 3175 3174 3173 3172 3171 3170 3170 3169 3168 3167 3166 3165 3164 3163 3161 3160 3159 3157 3155 3154 3152 3149 3145 3146 3144 3142 3141 3138 3137 3135 3134 3133 3132 3131 3130 3130 3130 3129 3129
3179 3180 3180 3181 3181 3182 3183 3183 3183 3183 3183 3183 3183 3183 3183 3182 3182 3182 3182 3182 3182 3182 3182 3183 3183 3184 3185 3185 3184 3184 3183 3183 3182 3182 3182 3181 3181 3181 3180 3180 3179 3179 3178 3177 3177 3176 3176 3175 3175 3174 3174 3173 3172 3171 3170 3169 3168 3167 3166 3165 3164 3163 3162 3160 3159 3157 3156 3154 3152 3151 3148 3144 3144 3142 3140 3138 3135 3133 3132 3131 3130 3129 3129 3128 3127 3127 3127 3127
3179 3179 3180 3181 3181 3182 3182 3183 3183 3183 3183 3183 3183 3183 3182 3182 3182 3182 3181 3182 3182 3182 3182 3183 3183 3184 3184 3184 3184 3183 3183 3183 3182 3182 3181 3181 3181 3180 3180 3180 3179 3178 3178 3177 3176 3176 3175 3175 3174 3174 3173 3172 3171 3171 3170 3169 3168 3167 3166 3164 3163 3162 3161 3159 3158 3156 3154 3153 3151 3150 3146 3143 3143 3141 3138 3135 3132 3131 3130 3129 3127 3126 3126 3126 3125 3125 3125 3125
3179 3179 3180 3181 3181 3182 3182 3182 3182 3183 3183 3183 3183 3182 3182 3182 3181 3181 3181 3182 3182 3181 3182 3182 3183 3184 3184 3184 3183 3183 3183 3182 3182 3181 3181 3181 3181 3180 3180 3179 3179 3178 3177 3177 3176 3176 3175 3175 3174 3173 3172 3172 3171 3170 3169 3168 3167 3166 3165 3164 3162 3161 3159 3158 3156 3154 3153 3151 3149 3148 3145 3141 3140 3139 3136 3132 3130 3128 3127 3127 3126 3124 3124 3123 3123 3123 3123 3123
3179 3179 3180 3180 3181 3182 3182 3182 3182 3182 3182 3182 3182 3182 3181 3181 3181 3181 3181 3182 3182 3181 3181 3182 3183 3183 3183 3183 3183 3183 3182 3182 3182 3181 3181 3181 3180 3180 3179 3179 3178 3178 3177 3176 3176 3175 3175 3174 3173 3173 3172 3171 3170 3169 3168 3168 3166 3165 3164 3162 3161 3159 3158 3156 3154 3152 3151 3150 3147 3145 3143 3140 3138 3137 3133 3130 3128 3126 3125 3124 3123 3122 3121 3122 3122 3122 3121 3121
3179 3179 3179 3180 3180 3181 3181 3182 3182 3182 3182 3182 3182 3181 3181 3181 3181 3181 3181 3181 3181 3181 3181 3182 3182 3183 3183 3183 3182 3182 3182 3182 3181 3181 3181 3180 3180 3180 3179 3178 3178 3177 3177 3176 3175 3175 3174 3173 3173 3172 3171 3170 3169 3168 3168 3167 3166 3165 3163 3161 3160 3158 3156 3154 3152 3150 3148 3147 3146 3143 3140 3137 3135 3134 3131 3127 3125 3125 3123 3122 3121 3120 3120 3120 3121 3121 3120 3120
3178 3178 3179 3179 3180 3180 3181 3181 3181 3181 3181 3181 3181 3181 3181 3181 3181 3180 3181 3181 3181 3181 3181 3182 3182 3182 3182 3182 3182 3182 3182 3181 3181 3181 3180 3180 3180 3179 3179 3178 3178 3177 3176 3176 3175 3174 3173 3173 3172 3171 3170 3169 3168 3167 3166 3166 3165 3163 3162 3160 3159 3157 3155 3153 3150 3148 3146 3144 3143 3141 3139 3135 3132 3131 3129 3126 3124 3123 3122 3120 3120 3120 3120 3120 3119 3119 3119 3118
3178 3178 3179 3179 3179 3180 3180 3180 3180 3180 3180 3180 3181 3181 3181 3181 3181 3180 3180 3180 3180 3180 3181 3181 3182 3182 3182 3182 3182 3181 3181 3181 3181 3180 3180 3180 3179 3179 3178 3178 3177 3177 3176 3175 3174 3174 3173 3172 3171 3170 3169 3168 3167 3166 3165 3164 3163 3162 3161 3159 3157 3155 3153 3151 3148 3146 3144 3141 3139 3139 3137 3134 3130 3128 3126 3125 3124 3122 3121 3120 3119 3119 3119 3119 3118 3118 3117 3117
3178 3178 3179 3179 3179 3179 3180 3180 3180 3180 3180 3180 3181 3181 3180 3181 3181 3180 3180 3180 3180 3180 3180 3181 3181 3181 3181 3181 3181 3181 3181 3181 3180 3180 3180 3179 3179 3178 3178 3177 3177 3176 3175 3175 3174 3173 3172 3171 3170 3169 3168 3167 3166 3165 3163 3162 3161 3160 3159 3157 3155 3153 3151 3149 3147 3145 3142 3139 3136 3135 3135 3133 3129 3126 3125 3124 3123 3121 3120 3119 3119 3119 3118 3118 3117 3117 3116 3115
3178 3178 3178 3179 3179 3179 3179 3179 3179 3180 3180 3180 3180 3180 3180 3180 3180 3180 3180 3180 3179 3179 3180 3180 3180 3181 3181 3180 3180 3180 3180 3180 3180 3180 3179 3179 3179 3178 3177 3177 3176 3175 3175 3174 3173 3172 3171 3170 3169 3168 3167 3165 3164 3163 3162 3161 3160 3159 3157 3155 3153 3151 3148 3147 3145 3144 3141 3137 3133 3132 3132 3132 3129 3126 3125 3123 3121 3120 3119 3118 3118 3118 3117 3116 3116 3115 3114 3113
3177 3178 3178 3178 3178 3178 3179 3179 3179 3180 3180 3180 3180 3180 3180 3180 3180 3180 3179 3179 3179 3179 3179 3179 3180 3180 3180 3180 3180 3180 3179 3179 3179 3179 3179 3178 3178 3178 3177 3176 3175 3175 3174 3173 3172 3171 3170 3169 3168 3167 3165 3164 3163 3162 3161 3159 3158 3157 3155 3153 3152 3150 3147 3144 3142 3142 3141 3137 3132 3129 3129 3129 3127 3125 3124 3122 3120 3119 3118 3118 3117 3117 3116 3115 3114 3113 3112 3111
3177 3178 3178 3178 3178 3178 3178 3179 3179 3180 3180 3180 3179 3179 3179 3179 3179 3179 3179 3178 3178 3178 3178 3178 3178 3179 3179 3179 3179 3179 3179 3179 3178 3178 3178 3178 3177 3177 3176 3175 3175 3174 3173 3172 3171 3170 3169 3167 3166 3165 3164 3163 3162 3160 3159 3158 3157 3155 3153 3152 3150 3148 3146 3143 3140 3138 3138 3136 3133 3129 3126 3126 3126 3125 3123 3122 3119 3118 3117 3117 3116 3116 3115 3114 3113 3111 3110 3108
3177 3177 3178 3178 3178 3178 3178 3179 3179 3180 3180 3179 3179 3179 3179 3179 3179 3179 3178 3178 3177 3177 3177 3177 3177 3178 3178 3178 3178 3178 3178 3178 3177 3177 3177 3177 3176 3176 3175 3174 3173 3173 3172 3171 3170 3168 3167 3166 3165 3164 3162 3161 3160 3159 3158 3156 3155 3153 3152 3150 3148 3146 3144 3142 3139 3136 3134 3133 3132 3130 3127 3124 3123 3123 3122 3120 3118 3117 3117 3116 3116 3116 3114 3113 3111 3110 3108 3105
3176 3177 3178 3178 3178 3178 3178 3178 3179 3180 3179 3179 3179 3179 3179 3179 3179 3178 3178 3177 3176 3176 3176 3176 3176 3177 3177 3177 3177 3177 3177 3176 3176 3176 3175 3175 3175 3174 3174 3173 3172 3171 3170 3169 3168 3167 3166 3164 3163 3162 3161 3160 3159 3157 3156 3154 3153 3151 3150 3148 3146 3144 3142 3140 3138 3136 3134 3131 3130 3130 3129 3124 3121 3121 3121 3119 3118 3117 3116 3116 3116 3115 3114 3112 3110 3108 3106 3104
3177 3177 3178 3178 3178 3178 3179 3179 3179 3180 3180 3179 3179 3179 3179 3179 3178 3178 3177 3176 3175 3176 3176 3176 3176 3176 3177 3177 3176 3176 3176 3175 3175 3174 3174 3174 3173 3173 3172 3171 3171 3169 3169 3168 3166 3165 3164 3163 3162 3160 3159 3158 3157 3156 3154 3153 3151 3149 3148 3146 3144 3142 3140 3138 3136 3134 3132 3130 3128 3127 3128 3126 3121 3120 3120 3119 3118 3117 3116 3115 3115 3114 3112 3110 3109 3107 3105 3102
3177 3178 3178 3178 3178 3179 3179 3179 3179 3180 3179 3179 3179 3179 3178 3178 3178 3177 3177 3176 3175 3175 3176 3175 3175 3176 3176 3176 3176 3175 3175 3175 3174 3173 3173 3172 3172 3171 3170 3170 3169 3168 3167 3166 3164 3163 3162 3161 3160 3159 3157 3156 3155 3154 3152 3151 3149 3147 3146 3144 3142 3140 3138 3135 3134 3131 3129 3129 3127 3125 3126 3125 3121 3120 3119 3117 3116 3115 3114 3114 3113 3111 3110 3108 3106 3104 3101 3098
3177 3178 3178 3178 3179 3179 3179 3179 3180 3180 3179 3179 3179 3179 3178 3178 3177 3177 3177 3176 3175 3175 3175 3175 3175 3175 3175 3175 3175 3174 3174 3173 3173 3172 3171 3171 3170 3170 3169 3168 3167 3166 3165 3164 3162 3161 3160 3159 3158 3156 3155 3154 3153 3152 3151 3149 3148 3146 3144 3142 3140 3138 3135 3133 3131 3129 3128 3127 3126 3124 3125 3124 3120 3118 3118 3116 3114 3113 3112 3111 3110 3108 3106 3104 3102 3100 3097 3095
3178 3178 3178 3179 3179 3179 3179 3180 3180 3180 3179 3179 3179 3178 3178 3178 3177 3177 3176 3175 3174 3175 3175 3175 3175 3175 3175 3174 3174 3173 3172 3172 3171 3170 3169 3169 3168 3168 3167 3166 3165 3163 3162 3161 3160 3159 3158 3157 3156 3154 3153 3152 3151 3150 3149 3148 3146 3144 3142 3139 3137 3135 3132 3130 3128 3127 3127 3125 3123 3123 3124 3125 3121 3117 3116 3115 3113 3112 3110 3109 3107 3105 3103 3101 3099 3097 3094 3092
3178 3178 3179 3179 3179 3179 3179 3179 3179 3179 3178 3178 3178 3178 3178 3177 3177 3177 3175 3174 3174 3174 3174 3174 3174 3174 3174 3173 3172 3171 3170 3170 3169 3168 3168 3167 3167 3166 3165 3164 3162 3161 3160 3158 3158 3157 3156 3155 3153 3152 3151 3150 3149 3148 3147 3146 3145 3143 3141 3138 3136 3132 3129 3127 3125 3126 3125 3121 3122 3123 3123 3125 3122 3116 3114 3114 3112 3110 3108 3106 3104 3101 3100 3098 3096 3094 3092 3089
3178 3178 3179 3179 3179 3179 3179 3179 3179 3178 3178 3177 3177 3177 3177 3176 3176 3175 3174 3174 3173 3173 3174 3174 3173 3173 3172 3171 3171 3169 3168 3167 3167 3166 3166 3165 3165 3164 3164 3163 3161 3160 3157 3156 3155 3154 3153 3152 3151 3150 3149 3148 3147 3146 3146 3144 3143 3141 3140 3139 3137 3132 3129 3126 3123 3124 3122 3120 3121 3122 3123 3122 3118 3114 3113 3112 3110 3108 3105 3103 3101 3099 3097 3095 3094 3091 3089 3086
3178 3178 3179 3179 3179 3179 3179 3179 3178 3178 3177 3177 3177 3176 3176 3176 3175 3174 3174 3174 3173 3173 3173 3173 3172 3172 3171 3170 3168 3167 3166 3166 3165 3165 3164 3164 3163 3163 3162 3161 3160 3159 3157 3154 3153 3152 3151 3150 3149 3148 3147 3147 3146 3145 3144 3142 3141 3140 3139 3139 3137 3135 3133 3128 3123 3121 3120 3120 3121 3121 3122 3119 3113 3111 3111 3109 3107 3105 3102 3100 3098 3096 3094 3092 3090 3087 3085 3082
3178 3178 3179 3179 3179 3179 3179 3178 3178 3178 3177 3177 3176 3176 3175 3175 3174 3173 3174 3173 3173 3173 3172 3172 3171 3170 3169 3168 3167 3166 3165 3164 3164 3164 3163 3162 3162 3161 3160 3159 3158 3157 3156 3154 3152 3151 3149 3148 3147 3147 3146 3146 3145 3144 3143 3141 3139 3138 3137 3138 3137 3137 3137 3131 3125 3122 3120 3119 3120 3120 3119 3113 3109 3109 3108 3106 3105 3101 3099 3097 3095 3094 3091 3089 3086 3083 3081 3078
3178 3178 3178 3179 3179 3178 3178 3178 3178 3177 3176 3176 3175 3175 3174 3174 3173 3173 3173 3173 3172 3172 3171 3170 3169 3168 3167 3166 3165 3165 3164 3163 3163 3162 3162 3161 3160 3159 3158 3158 3157 3156 3155 3153 3152 3150 3148 3146 3146 3146 3145 3144 3143 3142 3141 3140 3138 3136 3135 3136 3135 3135 3136 3132 3127 3124 3123 3121 3118 3115 3112 3107 3106 3107 3105 3103 3101 3098 3096 3093 3092 3092 3088 3085 3082 3079 3077 3073
3178 3178 3178 3178 3178 3178 3178 3178 3177 3177 3176 3175 3175 3174 3174 3173 3173 3172 3172 3172 3171 3171 3170 3169 3168 3166 3166 3165 3164 3164 3163 3162 3162 3161 3160 3160 3159 3158 3157 3156 3155 3155 3154 3153 3152 3150 3147 3145 3144 3144 3143 3142 3141 3140 3140 3139 3137 3135 3134 3134 3133 3133 3133 3130 3126 3123 3124 3122 3114 3109 3105 3102 3102 3103 3101 3100 3099 3096 3093 3090 3089 3089 3086 3082 3079 3075 3072 3069
3177 3177 3177 3177 3177 3177 3177 3177 3176 3176 3175 3175 3174 3173 3173 3172 3172 3172 3171 3171 3170 3169 3168 3167 3166 3165 3164 3164 3163 3162 3162 3161 3160 3160 3159 3158 3157 3156 3156 3155 3154 3153 3153 3151 3150 3149 3147 3143 3142 3143 3141 3140 3140 3138 3137 3137 3135 3134 3133 3132 3131 3130 3129 3129 3126 3122 3121 3117 3109 3105 3102 3099 3100 3101 3099 3099 3097 3094 3090 3087 3086 3085 3082 3078 3075 3072 3069 3066
3176 3176 3176 3176 3177 3177 3176 3176 3175 3175 3174 3174 3173 3172 3172 3171 3171 3171 3170 3169 3169 3168 3167 3166 3165 3164 3163 3162 3162 3161 3161 3160 3160 3159 3158 3157 3156 3155 3154 3154 3153 3152 3151 3150 3149 3148 3146 3142 3140 3140 3140 3138 3138 3136 3135 3134 3133 3133 3132 3131 3130 3129 3127 3128 3127 3123 3120 3114 3106 3102 3099 3097 3097 3098 3097 3096 3094 3091 3086 3083 3081 3080 3078 3074 3070 3068 3065 3061
3176 3176 3175 3176 3176 3176 3175 3175 3174 3173 3173 3173 3172 3171 3171 3170 3170 3169 3169 3168 3167 3166 3165 3165 3164 3163 3162 3161 3160 3160 3160 3159 3159 3158 3157 3156 3154 3154 3153 3152 3151 3151 3150 3149 3148 3146 3145 3143 3139 3137 3138 3137 3136 3135 3133 3132 3131 3131 3130 3129 3129 3128 3126 3126 3125 3123 3120 3114 3106 3101 3098 3095 3094 3094 3095 3094 3091 3088 3083 3079 3077 3076 3074 3071 3067 3063 3059 3055
3175 3175 3175 3175 3175 3175 3174 3173 3173 3172 3172 3171 3171 3170 3170 3169 3169 3168 3167 3166 3166 3165 3164 3164 3163 3162 3161 3160 3160 3159 3158 3158 3158 3157 3156 3154 3153 3152 3151 3151 3150 3149 3148 3147 3146 3145 3143 3142 3139 3136 3136 3135 3134 3133 3131 3130 3129 3128 3128 3127 3126 3125 3125 3124 3121 3120 3119 3114 3108 3103 3097 3093 3092 3092 3093 3092 3088 3085 3081 3076 3074 3073 3071 3068 3064 3060 3055 3050
3175 3175 3174 3174 3174 3174 3173 3172 3172 3172 3171 3171 3170 3169 3169 3168 3167 3167 3166 3165 3164 3164 3163 3162 3162 3161 3160 3159 3159 3158 3157 3157 3156 3155 3154 3153 3152 3151 3150 3149 3149 3148 3147 3146 3145 3143 3141 3140 3137 3134 3134 3133 3132 3131 3129 3128 3127 3126 3126 3125 3124 3124 3123 3122 3118 3116 3116 3113 3109 3105 3096 3089 3090 3091 3090 3089 3086 3082 3078 3074 3071 3069 3067 3064 3060 3056 3050 3045
3174 3174 3174 3174 3173 3173 3172 3172 3171 3171 3170 3170 3169 3168 3168 3167 3166 3165 3165 3164 3163 3162 3162 3161 3161 3160 3159 3159 3158 3157 3156 3155 3154 3154 3152 3152 3151 3150 3149 3148 3147 3146 3145 3144 3143 3142 3140 3138 3134 3132 3132 3131 3129 3128 3127 3126 3125 3125 3124 3123 3123 3122 3122 3121 3117 3113 3114 3110 3107 3107 3098 3087 3087 3089 3088 3086 3083 3078 3074 3071 3068 3065 3063 3060 3055 3051 3046 3042
3174 3174 3173 3173 3172 3172 3171 3171 3170 3170 3169 3169 3168 3167 3166 3166 3165 3164 3163 3163 3162 3162 3161 3160 3160 3159 3158 3157 3157 3156 3155 3154 3153 3152 3151 3151 3150 3149 3148 3147 3145 3144 3143 3142 3141 3140 3138 3136 3133 3130 3129 3128 3127 3126 3125 3124 3124 3123 3122 3121 3121 3120 3119 3119 3116 3113 3111 3107 3106 3106 3096 3084 3084 3087 3086 3083 3079 3074 3071 3068 3065 3061 3058 3054 3050 3045 3041 3036
3173 3173 3172 3172 3172 3171 3171 3170 3169 3169 3168 3168 3167 3166 3166 3165 3164 3163 3163 3162 3161 3161 3160 3159 3159 3158 3157 3156 3155 3155 3154 3153 3152 3151 3150 3149 3149 3148 3146 3145 3144 3142 3141 3140 3139 3138 3137 3135 3132 3129 3126 3124 3124 3124 3123 3123 3122 3121 3120 3119 3118 3117 3116 3114 3112 3111 3108 3103 3104 3102 3090 3082 3085 3085 3082 3079 3073 3069 3067 3065 3062 3057 3053 3049 3044 3039 3034 3028
3172 3172 3172 3171 3171 3170 3170 3169 3169 3168 3167 3167 3166 3166 3165 3164 3163 3163 3162 3161 3160 3160 3159 3158 3157 3156 3156 3155 3154 3154 3153 3152 3151 3150 3149 3148 3147 3146 3145 3143 3142 3140 3139 3138 3136 3136 3135 3133 3132 3130 3128 3125 3124 3123 3123 3122 3121 3119 3118 3116 3115 3113 3112 3111 3109 3108 3105 3100 3101 3098 3087 3080 3082 3083 3080 3076 3069 3065 3063 3060 3057 3054 3049 3045 3039 3033 3027 3022
3172 3171 3171 3171 3170 3170 3169 3169 3168 3167 3167 3166 3166 3165 3164 3163 3163 3162 3161 3160 3160 3159 3158 3157 3156 3155 3155 3154 3153 3153 3152 3151 3150 3148 3147 3146 3145 3144 3143 3141 3140 3138 3137 3136 3134 3133 3132 3131 3130 3129 3128 3126 3124 3123 3122 3120 3118 3117 3115 3114 3112 3110 3109 3108 3107 3105 3103 3099 3095 3094 3089 3080 3076 3077 3076 3071 3065 3061 3058 3055 3052 3048 3045 3040 3034 3027 3022 3018
3171 3171 3170 3170 3170 3169 3168 3168 3167 3167 3166 3166 3165 3164 3164 3163 3162 3161 3160 3159 3158 3158 3157 3156 3155 3154 3154 3153 3152 3152 3151 3150 3148 3147 3146 3145 3143 3142 3141 3139 3138 3136 3135 3134 3133 3132 3130 3129 3128 3126 3124 3123 3122 3121 3119 3117 3115 3114 3113 3111 3109 3108 3106 3106 3105 3103 3102 3098 3091 3089 3090 3083 3075 3074 3072 3066 3062 3058 3054 3051 3047 3044 3040 3035 3028 3023 3018 3014
3170 3170 3170 3169 3169 3168 3168 3167 3167 3166 3165 3165 3164 3164 3163 3162 3161 3160 3159 3158 3157 3157 3156 3155 3154 3154 3153 3152 3151 3150 3149 3148 3147 3145 3144 3143 3141 3140 3139 3137 3136 3134 3133 3132 3131 3130 3128 3126 3125 3123 3122 3121 3120 3118 3116 3114 3113 3112 3110 3107 3106 3105 3104 3103 3103 3101 3100 3097 3090 3085 3085 3081 3075 3072 3068 3063 3060 3056 3052 3048 3044 3041 3037 3030 3024 3018 3014 3010
3170 3170 3169 3169 3168 3168 3167 3166 3166 3165 3165 3164 3163 3163 3162 3161 3160 3159 3158 3157 3157 3156 3155 3154 3154 3153 3152 3151 3150 3149 3148 3146 3145 3144 3143 3141 3140 3139 3137 3135 3134 3133 3132 3131 3129 3128 3126 3124 3123 3121 3119 3118 3117 3115 3113 3112 3111 3109 3107 3105 3104 3103 3103 3101 3101 3099 3097 3093 3089 3083 3079 3076 3073 3069 3065 3061 3059 3055 3051 3047 3043 3039 3032 3025 3020 3015 3010 3006
3169 3169 3169 3168 3167 3167 3166 3166 3165 3165 3164 3164 3163 3162 3161 3160 3159 3158 3157 3157 3156 3155 3154 3154 3153 3152 3151 3150 3149 3148 3146 3145 3144 3142 3141 3140 3138 3137 3135 3134 3133 3131 3130 3129 3127 3126 3125 3122 3121 3119 3116 3115 3115 3113 3111 3110 3108 3106 3104 3103 3102 3101 3101 3100 3098 3097 3093 3089 3085 3081 3076 3072 3070 3066 3061 3059 3056 3052 3048 3043 3038 3034 3027 3021 3016 3011 3006 3001
3169 3168 3168 3167 3167 3166 3166 3165 3165 3164 3164 3163 3162 3161 3160 3160 3159 3158 3157 3156 3155 3155 3154 3153 3152 3151 3150 3149 3148 3146 3145 3144 3142 3141 3140 3138 3137 3136 3134 3132 3131 3129 3128 3127 3126 3125 3123 3121 3120 3118 3115 3113 3112 3111 3109 3107 3105 3103 3102 3101 3101 3100 3098 3097 3096 3095 3091 3085 3081 3078 3073 3069 3065 3061 3057 3055 3053 3049 3043 3038 3034 3029 3023 3017 3012 3007 3002 2997
3168 3168 3167 3167 3167 3166 3166 3165 3164 3164 3163 3162 3161 3161 3160 3159 3158 3157 3156 3155 3155 3154 3153 3152 3151 3150 3149 3148 3146 3145 3144 3143 3141 3140 3138 3137 3135 3134 3132 3131 3129 3128 3127 3126 3124 3123 3122 3120 3118 3117 3114 3111 3110 3109 3107 3104 3102 3101 3100 3099 3099 3098 3096 3095 3094 3093 3091 3085 3080 3075 3071 3067 3062 3058 3053 3049 3046 3042 3037 3033 3029 3023 3018 3014 3009 3004 2999 2993